RH
21 16 12 7 5 5 4 4 4 5 5 4 3 3 5 16 32 38 33 40 46 26 27 33 28 21 21 16 16 25 36 47 50 71 62 53 42 38 43 44 44 50 49 49 49 48 48
26 18 13 8 5 6 5 5 5 5 5 5 4 3 3 12 29 42 40 30 30 23 16 18 18 21 22 23 13 25 42 52 63 65 61 50 41 43 40 42 46 46 47 46 46 47 48
31 24 16 9 6 6 6 5 5 5 5 5 4 3 2 8 22 36 39 37 35 29 24 18 22 16 15 20 25 35 44 51 62 61 57 58 50 45 45 50 45 45 52 45 40 40 47
26 29 20 13 8 6 7 6 6 6 6 5 4 3 2 6 21 29 29 27 32 41 35 21 13 17 18 16 24 34 42 47 64 58 47 52 50 47 44 44 43 44 44 56 36 31 40
10 29 26 19 12 7 7 7 7 6 7 6 4 3 2 5 17 26 29 28 36 35 13 16 16 20 18 19 27 39 40 44 48 54 46 41 43 46 48 55 58 52 58 52 42 21 28
16 13 30 26 17 10 7 8 8 7 8 7 5 4 3 4 11 17 20 24 16 14 15 11 15 18 18 21 37 49 52 42 41 47 41 29 27 41 48 49 53 47 46 28 42 27 20
48 17 19 30 24 15 10 8 8 8 8 8 7 4 3 3 7 14 20 27 35 28 15 24 21 20 21 24 36 43 45 38 34 23 27 21 26 29 30 30 25 27 24 22 25 24 22
72 58 23 19 30 23 14 9 9 10 10 9 9 6 4 3 5 10 21 32 15 17 24 23 22 20 16 20 21 41 40 32 31 27 18 21 26 22 19 17 18 26 30 22 20 20 21
63 75 67 39 16 28 20 11 9 10 10 10 11 8 4 4 6 6 13 21 19 15 26 26 23 26 22 24 30 29 26 24 21 19 20 22 20 13 14 17 22 21 31 23 29 27 23
65 71 73 70 40 19 26 16 11 11 12 12 12 10 5 6 11 4 19 10 18 13 34 29 24 27 28 25 30 20 22 21 21 22 23 27 22 14 15 22 25 22 23 26 26 38 46
74 75 76 79 75 48 24 20 13 12 12 12 12 14 8 6 5 8 9 13 18 36 64 24 26 25 27 28 31 30 20 20 21 23 18 32 29 18 18 23 23 36 27 28 30 34 39
94 85 84 87 81 78 56 40 24 14 13 13 21 13 10 9 7 12 15 16 30 58 66 34 24 24 22 23 27 28 23 19 17 19 23 25 21 17 21 23 22 31 29 30 33 44 82
98 100 97 93 91 84 85 43 24 19 14 22 33 22 14 10 16 15 16 36 47 44 24 35 30 25 21 26 28 24 23 24 28 34 29 28 26 27 23 27 29 33 35 65 60 83 74
99 96 100 100 99 92 88 67 36 22 14 29 47 22 16 14 12 17 27 48 42 26 26 28 26 25 27 26 26 30 27 26 21 29 36 45 46 32 24 26 31 36 38 85 70 76 71
100 100 100 100 100 95 93 84 44 25 17 31 41 35 22 17 17 20 47 41 42 27 28 32 28 29 29 29 30 31 31 22 22 32 51 47 39 34 29 26 32 33 43 44 69 56 52
99 98 100 100 99 100 99 89 81 31 19 24 55 35 28 23 22 28 48 44 23 27 23 25 25 25 19 33 26 32 25 22 31 29 37 49 63 36 38 34 34 49 42 45 62 61 72
85 92 97 98 100 100 100 98 99 63 25 38 61 50 46 26 36 42 53 43 28 31 26 27 22 19 18 30 27 29 23 36 38 36 30 27 51 46 43 47 39 43 77 72 77 83 82
43 40 73 100 99 100 100 100 99 57 40 55 48 63 46 30 44 43 48 33 32 38 36 35 32 27 24 22 32 24 24 42 34 35 42 34 74 62 48 40 37 46 62 66 64 67 86
20 68 97 95 97 100 99 100 100 97 90 63 78 63 60 40 54 42 35 35 39 42 42 39 38 32 37 29 58 36 34 47 36 40 43 55 53 61 56 70 46 56 60 75 80 83 82
17 21 40 75 86 90 99 100 100 100 90 85 76 84 47 42 40 43 51 48 44 41 41 38 39 40 40 42 39 70 45 51 48 42 60 60 90 82 51 64 63 70 46 50 67 91 64
12 28 30 29 31 48 97 100 100 100 100 97 85 95 56 72 51 47 66 71 47 57 50 42 48 53 62 73 46 52 52 54 56 56 63 85 90 64 61 68 64 72 61 50 72 60 50
11 16 35 40 52 42 68 95 89 100 100 98 93 97 85 86 52 54 65 83 62 52 61 60 68 54 63 78 67 67 69 72 72 53 74 88 91 71 70 59 76 81 73 75 61 61 65
9 9 22 82 99 100 99 100 100 100 100 94 91 99 93 100 96 97 86 71 88 51 54 64 65 74 68 65 64 76 70 67 67 70 82 90 87 84 58 55 62 65 65 61 49 52 60
11 11 13 42 95 100 100 100 100 100 100 98 93 98 99 99 97 89 97 91 87 89 93 85 79 87 79 77 80 73 84 85 72 81 75 92 89 92 94 74 68 48 75 65 56 49 56
12 12 14 23 69 99 99 95 99 98 100 100 98 99 98 99 85 90 98 99 94 89 94 84 85 84 54 86 95 95 91 87 85 71 78 82 84 93 88 80 50 44 64 58 52 59 86
11 12 13 44 58 82 98 99 100 100 99 100 100 99 98 99 96 93 91 95 88 88 93 97 87 68 94 96 95 95 94 71 95 92 53 68 81 94 87 93 96 65 67 58 62 57 70
16 13 13 18 75 70 97 99 100 99 100 100 99 99 100 99 98 88 95 87 82 96 95 95 97 95 95 95 95 94 94 76 91 87 86 80 79 89 89 89 85 73 63 56 46 66 75
21 18 13 13 28 90 75 72 86 98 98 99 98 99 100 99 98 92 95 96 96 97 95 97 95 96 95 95 95 91 95 91 79 76 79 81 89 93 82 95 92 63 60 59 74 72 74
28 21 20 15 14 25 88 98 98 100 100 98 100 100 100 99 97 97 97 95 92 96 96 96 96 85 82 94 95 96 95 92 74 94 69 88 83 91 83 83 82 85 84 90 84 79 81
Wind_Speed
5 5 4 3 3 4 6 7 9 11 13 14 14 15 13 12 12 14 15 14 15 16 7 2 2 3 7 5 5 7 5 5 8 8 5 4 6 2 5 9 14 12 10 16 18 21 18
4 3 3 2 2 3 4 6 8 10 12 13 13 13 12 10 8 9 11 14 17 8 8 9 2 3 4 4 6 6 7 6 10 6 5 3 2 2 7 9 2 15 18 15 10 10 13
3 4 3 1 1 2 3 5 7 9 10 11 12 12 11 8 7 6 8 11 7 4 4 5 1 9 5 3 6 7 9 6 8 8 8 7 6 2 8 12 20 23 11 9 9 8 5
3 3 4 3 1 1 2 4 5 7 9 10 10 10 9 7 5 5 6 3 3 4 4 2 5 8 5 5 6 6 10 8 7 6 10 12 9 13 10 20 13 7 8 5 4 8 6
3 3 3 2 2 2 3 3 4 6 8 10 10 10 9 5 3 1 1 2 3 2 6 2 3 2 4 5 3 5 5 8 7 7 9 9 10 7 12 8 4 6 3 5 5 2 5
4 3 3 3 2 2 3 4 4 6 7 9 10 10 8 5 3 2 3 4 5 5 2 3 3 1 3 2 3 6 7 9 5 6 6 4 3 4 5 4 2 2 5 2 6 5 5
5 4 3 2 2 2 3 3 4 5 6 7 8 9 8 5 3 2 2 4 5 2 9 6 3 6 4 8 5 5 6 7 2 3 3 1 2 4 8 5 2 3 4 5 6 4 2
6 6 5 4 4 3 3 4 4 4 5 6 7 7 7 6 3 1 1 2 3 1 3 4 5 6 3 6 1 2 4 1 3 3 2 2 4 6 5 2 2 3 4 1 4 3 3
8 7 5 5 6 6 4 4 4 5 5 6 6 6 5 5 4 3 2 2 1 3 3 3 2 2 1 4 3 3 4 3 5 2 3 2 6 6 4 4 5 4 2 3 3 7 8
11 9 8 6 6 6 6 5 4 5 4 5 6 5 6 5 3 5 3 2 3 3 2 3 2 3 2 3 3 3 4 2 1 4 6 6 4 4 3 4 3 5 6 5 3 5 2
14 13 11 9 8 8 6 7 6 5 5 4 5 5 4 5 3 3 5 1 4 0 4 2 2 1 4 3 2 5 6 2 3 4 1 3 6 4 3 4 1 4 5 2 2 3 6
17 16 12 11 11 9 9 9 9 7 6 4 4 4 3 3 3 3 1 6 2 0 5 3 3 3 4 2 2 1 2 6 6 4 7 4 4 1 3 6 3 5 4 4 3 2 2
19 18 15 14 13 12 11 10 9 8 7 5 5 4 3 3 2 2 8 2 2 3 2 3 3 3 4 4 3 3 3 4 4 4 5 3 4 3 5 5 3 3 2 1 2 0 5
23 19 18 16 15 14 13 12 11 10 7 7 6 5 4 3 1 8 7 1 3 2 3 3 2 2 3 5 1 4 2 4 6 2 3 5 4 9 8 2 3 7 4 3 6 4 2
27 26 22 21 18 17 16 15 13 12 9 8 6 4 3 2 3 9 2 2 3 4 4 6 2 3 4 2 3 3 5 3 6 11 6 4 3 4 4 2 3 5 4 2 1 4 1
25 24 24 25 22 22 20 18 16 13 11 8 5 4 5 4 6 11 1 4 2 3 2 2 3 7 3 6 2 4 6 1 4 1 7 2 2 4 2 4 3 2 1 3 2 3 5
30 28 27 25 24 25 24 19 17 14 13 10 7 2 2 6 10 5 3 4 3 3 0 2 3 2 4 6 6 5 4 1 6 2 2 2 2 4 5 8 8 4 3 2 2 3 5
27 26 25 28 27 23 26 23 20 17 16 12 6 2 5 13 3 4 3 3 1 4 3 2 2 3 3 4 4 4 5 4 11 10 5 1 1 5 6 3 3 2 5 6 4 5 3
20 24 24 24 25 26 26 24 25 25 21 12 5 3 8 17 3 4 3 1 2 4 4 4 4 4 4 1 2 7 3 3 8 5 1 3 4 2 2 1 1 4 5 2 5 2 6
14 19 24 26 28 26 23 24 26 24 25 17 8 2 2 12 5 1 2 4 4 5 3 4 2 6 2 4 2 3 2 1 2 3 4 4 3 4 7 2 4 5 9 13 10 4 4
9 13 17 22 25 26 26 24 22 25 23 17 7 4 6 3 6 7 4 3 4 5 5 9 4 7 7 6 3 5 5 3 4 7 4 2 4 3 3 2 2 5 6 14 19 23 11
8 9 11 13 16 19 22 22 25 23 20 23 7 5 7 3 3 8 6 5 8 5 7 5 5 9 8 6 6 6 6 4 5 9 4 2 2 1 4 5 6 8 9 10 19 21 21
7 7 6 12 11 14 17 25 20 17 19 13 15 9 5 6 4 4 5 6 2 2 8 1 5 5 7 8 2 6 7 3 3 8 8 6 4 3 5 2 5 11 16 22 17 13 20
6 5 4 7 16 12 17 14 16 12 12 17 10 10 6 2 4 5 5 6 9 7 5 2 2 3 5 4 8 7 4 3 2 2 5 6 5 2 2 1 8 5 3 2 14 16 12
5 5 5 8 10 17 17 15 16 16 15 17 16 10 7 2 5 4 8 3 3 4 2 4 1 2 17 7 2 1 1 1 1 4 2 4 4 3 3 5 12 16 2 5 6 4 3
6 6 5 6 13 16 25 21 20 19 20 19 18 18 9 2 7 5 4 10 4 4 3 4 3 16 8 3 2 4 5 4 3 2 1 1 3 1 2 4 6 3 0 1 2 3 5
8 8 7 6 5 14 18 23 24 19 23 24 19 21 16 7 7 9 4 4 8 5 2 5 7 6 7 3 4 5 4 0 5 7 6 4 2 9 9 7 6 1 5 5 4 4 4
11 11 10 11 11 13 17 19 20 27 24 25 27 24 23 8 6 11 11 6 6 7 4 9 5 5 3 4 4 3 4 5 1 5 7 8 8 4 5 5 10 3 2 5 2 7 5
12 13 14 15 15 17 20 19 22 28 31 33 30 26 23 11 3 6 11 12 13 10 10 20 1 5 10 4 4 2 2 1 2 3 2 4 5 5 9 3 3 6 7 6 5 4 6
Wind_Direction
45 37 27 53 64 56 47 38 29 23 21 22 23 23 28 34 44 47 60 97 115 122 130 25 30 51 88 62 22 34 47 72 84 68 113 137 176 168 150 104 73 98 95 80 92 90 89
19 36 39 61 74 49 40 29 28 25 22 20 20 23 29 33 44 56 73 106 117 77 81 65 56 82 73 94 23 57 56 82 85 78 94 104 105 58 108 124 351 117 116 116 99 105 130
1 3 13 106 117 58 40 26 23 22 21 22 21 21 26 35 46 70 96 125 111 59 43 11 45 75 77 114 34 94 49 79 105 101 102 100 131 50 89 92 118 122 109 126 128 118 105
332 358 1 342 317 9 13 22 19 16 18 18 21 22 27 38 64 87 108 136 339 343 345 356 72 74 83 66 81 127 95 68 79 121 116 111 93 109 114 129 141 164 149 162 145 152 154
294 325 347 347 323 315 331 358 9 10 14 14 15 20 24 39 64 72 3 336 350 10 29 79 38 113 89 49 89 106 110 92 75 92 104 97 98 96 136 156 160 213 247 172 167 252 142
272 296 325 342 333 302 312 334 351 1 9 13 11 13 19 41 55 61 24 68 39 17 285 66 56 43 57 358 88 108 109 102 96 103 93 86 121 146 180 209 205 219 211 66 139 167 227
254 269 284 308 320 299 287 301 326 346 358 11 11 10 18 36 55 58 75 9 340 314 58 78 29 97 76 88 67 120 117 86 100 69 148 187 140 68 65 58 356 334 30 124 94 110 292
251 268 286 301 307 303 281 281 300 324 339 357 10 13 17 27 43 74 31 18 334 223 115 71 83 80 101 86 157 129 131 167 248 108 198 192 110 86 65 18 141 105 101 104 106 83 257
245 254 270 288 301 305 295 277 294 314 332 343 356 7 16 25 28 355 286 256 303 160 261 114 112 75 81 79 55 352 89 26 47 105 16 92 93 122 166 157 137 59 23 76 46 342 246
242 250 260 268 279 290 299 281 277 293 314 332 346 1 359 22 23 356 324 285 189 207 268 124 142 8 354 118 61 39 106 83 286 104 79 83 136 148 148 89 321 133 67 72 34 6 310
243 245 253 261 267 276 281 283 273 271 287 318 330 345 354 3 343 334 315 179 156 20 340 83 89 149 62 40 98 4 35 7 109 100 274 109 150 176 190 83 349 112 70 59 340 284 313
245 244 247 262 265 270 278 278 277 280 285 308 328 335 342 355 346 339 86 132 136 304 251 126 121 151 167 119 77 85 47 86 109 84 46 89 22 24 46 101 50 127 177 178 189 221 286
242 243 245 251 261 265 271 273 272 274 277 283 307 310 332 354 337 132 136 103 314 219 116 151 177 183 241 150 154 213 187 166 167 138 182 140 186 96 154 137 155 201 164 134 291 224 234
240 239 245 256 257 262 262 262 264 256 260 271 290 292 323 332 253 164 147 243 244 338 83 29 83 173 213 136 168 170 199 248 190 46 182 175 237 164 176 268 192 186 184 188 225 213 226
238 241 244 257 248 254 254 258 254 258 251 261 270 276 289 286 201 174 102 208 255 28 92 132 142 211 192 111 28 200 235 249 187 179 195 177 143 43 35 44 347 153 194 51 57 225 298
242 246 248 254 247 250 245 246 250 248 242 249 270 265 263 241 190 173 42 251 321 27 86 126 248 186 246 158 175 196 203 51 149 41 65 12 62 178 87 27 312 340 97 120 218 238 251
248 247 243 241 249 253 245 241 250 243 235 239 230 239 262 175 159 158 207 228 111 115 109 269 300 284 250 167 188 191 262 347 85 109 58 357 84 131 120 205 177 171 231 200 325 184 205
245 249 242 235 236 251 251 243 239 226 225 218 188 211 177 161 135 210 226 330 354 157 179 231 270 302 259 147 186 262 248 65 116 138 166 139 138 197 198 76 6 339 212 175 181 234 229
249 241 238 235 235 242 245 252 240 240 239 196 198 183 182 173 187 202 188 221 248 167 193 184 221 217 28 159 257 236 99 322 134 157 163 175 220 228 221 357 151 229 189 250 95 98 214
262 251 241 238 238 234 243 241 253 245 230 197 162 122 164 196 249 62 165 234 223 199 242 201 127 94 137 198 216 293 146 111 198 169 74 135 284 236 247 88 105 207 209 200 192 175 231
285 268 253 245 241 239 229 238 250 260 247 201 183 193 184 190 236 218 123 290 219 185 228 183 210 198 170 205 204 226 195 130 212 221 118 164 235 248 274 107 179 235 220 207 211 228 231
311 290 275 244 227 226 225 231 240 258 221 190 182 179 173 211 205 172 169 223 223 214 160 228 232 194 190 204 200 183 145 164 205 193 143 149 259 54 270 211 208 255 234 252 229 231 248
300 309 297 214 202 226 223 235 242 247 238 195 214 212 154 159 143 139 203 203 220 342 219 158 217 165 208 227 141 117 125 124 187 168 171 160 181 159 253 44 328 279 208 215 225 223 228
307 305 315 234 215 231 237 244 242 251 254 221 208 195 160 218 186 206 198 201 220 218 264 143 207 151 144 152 100 78 91 89 119 66 179 165 157 165 305 17 255 260 98 177 223 246 235
278 295 293 270 237 236 240 238 244 255 257 241 225 204 181 224 189 227 217 160 125 96 91 156 12 185 142 110 116 185 224 320 135 24 18 28 159 207 219 217 301 305 194 151 167 275 343
272 274 266 270 247 234 237 240 249 247 248 249 234 230 219 173 208 168 178 176 167 183 138 122 124 146 162 188 171 227 227 215 191 146 65 68 15 218 130 234 245 252 124 212 86 283 13
281 283 287 279 269 242 237 236 239 251 249 250 234 229 224 206 208 187 177 182 173 148 83 135 152 177 175 188 206 218 231 203 193 185 172 150 181 220 227 249 279 204 152 152 102 242 28
280 284 288 278 257 245 239 244 238 243 251 251 238 229 218 206 200 208 206 180 160 169 160 142 130 191 168 209 219 207 236 200 253 136 171 167 167 190 200 231 264 131 130 170 152 116 23
284 285 279 279 269 251 240 246 252 240 237 244 227 230 224 225 217 219 223 220 215 199 184 175 222 155 175 196 217 264 215 123 255 242 44 217 209 184 197 215 66 42 87 67 16 16 2